Other Public Products
Issued by NWS Grand Forks, ND

Home | Current Version | Previous Version | Graphics & Text | Print | Product List | Glossary On
Versions: 1 2 3 4 5 6 7 8 9 10 11 12 13 14 15 16 17 18 19 20 21 22 23 24 25 26 27 28 29 30 31 32 33 34 35 36 37 38 39 40 41 42 43 44 45 46 47 48 49 50
000
FPUS83 KFGF 271810
OPUFGF
PRAIRIE TO PINES WEATHER ROUNDUP
NATIONAL WEATHER SERVICE EASTERN NORTH DAKOTA/GRAND FORKS ND
100 PM CDT FRI MAY 27 2016

 **SATELLITE DATA USED TO AUGMENT SKY COVER AT AUTOMATED STATIONS**
 *****  WEATHER ACROSS EASTERN NORTH DAKOTA  *****

CITY           SKY/WX    TMP DP  RH WIND       PRES   REMARKS
GRAND FORKS    CLOUDY    69  55  60 NW6       29.79F
6HR MIN TEMP:  54; 6HR MAX TEMP:  69;

GRAND FORKS AF CLOUDY    67  55  64 NW6       29.80F
GRAND CITY NWS   N/A     68 N/A N/A N3          N/A
BUXTON           N/A     73  61  65 NW6         N/A
DEVILS LAKE    CLOUDY    63  53  70 SW8       29.83S
6HR MIN TEMP:  50; 6HR MAX TEMP:  64;

FARGO          PTSUNNY   75  58  55 N10       29.75F
6HR MIN TEMP:  59; 6HR MAX TEMP:  75;

WAHPETON ARPT  CLOUDY    73  46  38 E12       29.75F
$$

 *****  WEATHER ACROSS CENTRAL AND WESTERN NORTH DAKOTA  *****

CITY           SKY/WX    TMP DP  RH WIND       PRES   REMARKS
JAMESTOWN      PTSUNNY   66  53  63 NE6       29.80F
6HR MIN TEMP:  53; 6HR MAX TEMP:  67;

BISMARCK       MOSUNNY   69  50  50 N9        29.83S
6HR MIN TEMP:  50; 6HR MAX TEMP:  70;

MINOT          CLOUDY    67  54  63 NE10      29.82S
6HR MIN TEMP:  56; 6HR MAX TEMP:  67;

MINOT AFB      PTSUNNY   62  54  76 N10       29.82R
6HR MIN TEMP:  53; 6HR MAX TEMP:  63; 6HR PCP:  0.01;

GARRISON         N/A     63  50  62 N3        29.84R
6HR MIN TEMP:  50; 6HR MAX TEMP:  64;

WILLISTON      CLOUDY    66  50  56 NE8       29.85S
6HR MIN TEMP:  50; 6HR MAX TEMP:  67;

DICKINSON      CLOUDY    63  45  51 NE9       29.83S
6HR MIN TEMP:  43; 6HR MAX TEMP:  65;

HETTINGER      PTSUNNY   65  45  48 N6        29.85S
6HR MIN TEMP:  36; 6HR MAX TEMP:  69;

$$

 *****  OTHER OBSERVATIONS NORTHEAST NORTH DAKOTA  *****

CITY           SKY/WX    TMP DP  RH WIND       PRES   REMARKS
WALHALLA       FAIR      66  59  77 SE5       29.81S
LANGDON        FAIR      70  55  60 SE7       29.82F
CAVALIER       MOCLDY    68  57  68 SE6       29.80F
GRAFTON        FAIR      68  55  64 VRB6      29.82F
CANDO          NOT AVBL
FORT TOTTEN      N/A     69  55  59 N3        29.95S
ROLLA          MOCLDY    59  59 100 NE12      29.84S
RUGBY          CLOUDY    61  54  77 SW3       29.83F
 ***** THE ABOVE OBSERVATIONS ARE NON NWS ARE NOT QUALITY
        CONTROLLED AND MAY MIS-REPORT RAIN FOR SNOW...
$$

 *****  OTHER OBSERVATIONS SOUTHEAST NORTH DAKOTA *****

CITY           SKY/WX    TMP DP  RH WIND       PRES   REMARKS
COOPERSTOWN    NOT AVBL
VALLEY CITY    FAIR      66  57  72 NE10      29.81F
OAKES            N/A    N/A N/A N/A MISG        N/A
GWINNER        FAIR      72  57  60 N9        29.78R
BUFFALO          N/A     67  55  64 N8          N/A
WYNDMERE       NOT AVBL
 ***** THE ABOVE OBSERVATIONS ARE NON NWS ARE NOT QUALITY
       CONTROLLED AND MAY MIS-REPORT RAIN FOR SNOW...
$$

  *****  WEATHER ACROSS NORTHERN MINNESOTA  *****

CITY           SKY/WX    TMP DP  RH WIND       PRES   REMARKS
FLAG ISLAND    MOSUNNY   61  55  82 S5        29.83S
WARROAD        MOSUNNY   66  61  82 NE9       29.82F
ROSEAU         PTSUNNY   70  61  73 CALM      29.81S
HALLOCK        SUNNY     68  55  64 W6        29.80F
THF RVR FALLS  MOSUNNY   72  54  53 CALM      29.80F
6HR MIN TEMP:  55; 6HR MAX TEMP:  72;

HALSTAD        NOT AVBL
FOSSTON        CLOUDY    75  63  64 E7        29.78F
BAUDETTE       MOSUNNY   71  53  52 N5        29.81F
6HR MIN TEMP:  54; 6HR MAX TEMP:  73;

WASKISH        CLOUDY    72  55  56 SE15G23   29.82S
CROOKSTON      PTSUNNY   70  57  64 CALM      29.79F
$$
  *****  WEATHER ACROSS CENTRAL AND WEST MINNESOTA  *****

CITY           SKY/WX    TMP DP  RH WIND       PRES   REMARKS
BEMIDJI        CLOUDY    70  56  60 SE17      29.83S
PARK RAPIDS    PTSUNNY   69  55  60 SE15      29.81S
6HR MIN TEMP:  58; 6HR MAX TEMP:  69;

WADENA         LGT RAIN  66  57  72 E10       29.79F
DETROIT LAKES  PTSUNNY   72  54  53 SE14G20   29.79S
MOORHEAD       PTSUNNY   75  57  53 N10       29.75F
FERGUS FALLS   CLOUDY    66  55  68 E8G16     29.74R
ELBOW LAKE     FAIR      64  59  82 SE3       29.78S
6HR MIN TEMP:  61; 6HR MAX TEMP:  67;

MORRIS MN      DRIZZLE   64  63  94 CALM      29.77S
STAPLES        PTSUNNY   66  55  68 SE13G18   29.81S
WHEATON        CLOUDY    70  59  68 E16       29.78S
$$
  *****  WEATHER ELSEWHERE ACROSS MINNESOTA  *****

CITY           SKY/WX    TMP DP  RH WIND       PRES   REMARKS
DULUTH         LGT RAIN  61  56  83 NE6       29.90S
6HR MIN TEMP:  53; 6HR MAX TEMP:  62; 6HR PCP:  0.05;

INTRNTL FALLS  CLOUDY    68  53  58 S10G24    29.86R
6HR MIN TEMP:  52; 6HR MAX TEMP:  72;

ELY            LGT RAIN  63  57  82 S6        29.93R
CLOQUET        LGT RAIN  57  55  94 E5        29.89F
BRAINERD       LGT RAIN  61  60  97 SE7       29.84S
6HR MIN TEMP:  59; 6HR MAX TEMP:  64; 6HR PCP:  0.01;

HIBBING        LGT RAIN  58  56  93 E3        29.91S
6HR MIN TEMP:  47; 6HR MAX TEMP:  59; 6HR PCP:  0.14;

ALEXANDRIA     LGT RAIN  65  60  84 W3        29.79R
6HR MIN TEMP:  61; 6HR MAX TEMP:  69; 6HR PCP: TRACE;

SAINT CLOUD    RAIN      62  61  96 SE8       29.81F FOG
6HR MIN TEMP:  59; 6HR MAX TEMP:  67; 6HR PCP:  0.14;

MINNEAPOLIS    LGT RAIN  64  60  87 CALM      29.80F FOG
6HR MIN TEMP:  64; 6HR MAX TEMP:  68; 6HR PCP:  0.13;

$$

  *****  WEATHER ACROSS SOUTH DAKOTA  *****

CITY           SKY/WX    TMP DP  RH WIND       PRES   REMARKS
SIOUX FALLS    CLOUDY    71  58  63 VRB3      29.76S
6HR MIN TEMP:  61; 6HR MAX TEMP:  71; 6HR PCP:  0.02;

BROOKINGS      CLOUDY    64  58  80 W8        29.78S
WATERTOWN      LGT RAIN  60  57  89 CALM      29.80S
6HR MIN TEMP:  58; 6HR MAX TEMP:  67; 6HR PCP:  0.10;

HURON          LGT RAIN  63  60  90 W7        29.79S
6HR MIN TEMP:  60; 6HR MAX TEMP:  64; 6HR PCP:  0.01;

SISSETON         N/A     73  51  46 SE14      29.75R
ABERDEEN       PTSUNNY   72  55  55 NE6       29.77S
6HR MIN TEMP:  55; 6HR MAX TEMP:  73;

MITCHELL       CLOUDY    65  61  87 W15       29.80R
PIERRE         CLOUDY    66  54  65 SE8       29.82S
6HR MIN TEMP:  52; 6HR MAX TEMP:  67; 6HR PCP: TRACE;

MOBRIDGE       CLOUDY    71  48  43 N9        29.81R
RAPID CITY     CLOUDY    64  45  49 N17       29.86S
6HR MIN TEMP:  50; 6HR MAX TEMP:  66;

$$

  *****  SOME WEATHER IN NEARBY STATES *****

CITY           SKY/WX    TMP DP  RH WIND       PRES   REMARKS
GLASGOW MT     MOSUNNY   64  49  57 E13       29.87S
6HR MIN TEMP:  47; 6HR MAX TEMP:  65;

GREAT FALLS MT CLOUDY    61  41  47 SW12      29.87S
6HR MIN TEMP:  42; 6HR MAX TEMP:  62;

CHEYENNE WY    CLOUDY    54  34  46 N16G29    29.93R
6HR MIN TEMP:  45; 6HR MAX TEMP:  56;

SCOTTSBLUFF NE LGT RAIN  58  45  62 NE18      29.90R
6HR MIN TEMP:  51; 6HR MAX TEMP:  59; 6HR PCP: TRACE;

OMAHA NE       PTSUNNY   73  61  65 SE12G18   29.76S
6HR MIN TEMP:  62; 6HR MAX TEMP:  74;

DES MOINES IA  CLOUDY    69  64  84 CALM      29.75S
6HR MIN TEMP:  64; 6HR MAX TEMP:  69; 6HR PCP:  0.09;

DAVENPORT IA   CLOUDY    74  66  76 S14G22    29.81S
6HR MIN TEMP:  65; 6HR MAX TEMP:  75; 6HR PCP: TRACE;

CHICAGO IL     PTSUNNY   80  65  59 S9        29.87F
6HR MIN TEMP:  68; 6HR MAX TEMP:  80; 6HR PCP:  0.02;

EAU CLAIRE WI  CLOUDY    73  60  63 E12       29.79F
6HR MIN TEMP:  60; 6HR MAX TEMP:  73; 6HR PCP: TRACE;

LA CROSSE WI   CLOUDY    75  62  64 SE10      29.77F
6HR MIN TEMP:  65; 6HR MAX TEMP:  75; 6HR PCP:  0.03;

$$

  *****  SOME NATIONAL WEATHER *****

CITY           SKY/WX    TMP DP  RH WIND       PRES   REMARKS
LA GUARDIA NY  MOSUNNY   86  70  58 S12       30.04F HX  90
6HR MIN TEMP:  73; 6HR MAX TEMP:  88;                              C1F1C2F2C3F3C4F4C5F5C6F6C7F7C8F8C9F9CaFaCbFbCcFcCdFdCe!



USA.gov is the U.S. government's official web portal to all federal, state and local government web resources and services.